Weather History for EINN - May, 2012

Change the Weather History Date:

Saturday, May 26, 2012

  Actual Average Record
Temperature  
Mean Temperature 66 °F -  
Max Temperature 78 °F 63 °F 78 °F (2012)
Min Temperature 55 °F 49 °F 42 °F (2000)
Cooling Degree Days 2    
Growing Degree Days 16 (Base 50)    
Moisture  
Dew Point 50 °F    
Average Humidity 52    
Maximum Humidity 77    
Minimum Humidity 21    
Precipitation  
Precipitation 0.00 in 0.08 in - ()
Sea Level Pressure  
Sea Level Pressure 30.04 in    
Wind  
Wind Speed 14 mph ()    
Max Wind Speed 110 mph    
Max Gust Speed 34 mph    
Visibility 6.5 miles    
Events      
Averages and records for this station are not official NWS values.
T = Trace of Precipitation, MM = Missing Value Source: Averaged Metar Reports

Daily Weather History Graph

Daily Weather History Graph

Search for Another Location

Airport or City:

Trip Planner

Search our weather history database for the weather conditions in past years. The results will help you decide how hot, cold, wet, or windy it might be!

Date:

Astronomy

May. 26, 2012 Rise Set
Actual Time 5:23 AM IST 9:42 PM IST
Civil Twilight 4:37 AM IST 10:29 PM IST
Nautical Twilight 3:27 AM IST 11:39 PM IST
Astronomical Twilight 2:05 AM IST 1:00 AM IST
Moon 10:29 AM IST (5/26) 12:53 AM IST (5/26)
Length of Visible Light 17h 52m
Length of Day
16h 19m
Waxing Crescent, 26% of the Moon is Illuminated
May 26
Waxing Crescent
May 28
First Quarter
Jun 4
Full
Jun 11
Last Quarter
Jun 19
New

Hourly Weather History & Observations

Time (IST) Temp. Dew Point Humidity Pressure Visibility Wind Dir Wind Speed Gust Speed Precip Events Conditions
12:00 AM 68.0 °F 59.0 °F 73% 30.09 in - ENE 6.9 mph - N/A   Clear
12:30 AM 66.2 °F 57.2 °F 73% 30.09 in - ENE 6.9 mph - N/A   Clear
1:00 AM 67 °F 55 °F 57% 30.09 in 12 mi ENE 11.2 mph - -  
1:00 AM 66.2 °F 55.4 °F 68% 30.06 in - ENE 11.5 mph - N/A   Clear
1:30 AM 68.0 °F 53.6 °F 60% 30.06 in - East 13.8 mph - N/A   Clear
2:00 AM 66.2 °F 53.6 °F 64% 30.06 in - East 12.7 mph - N/A   Clear
2:30 AM 64.4 °F 53.6 °F 68% 30.06 in - East 13.8 mph - N/A   Clear
3:00 AM 64.4 °F 51.8 °F 64% 30.06 in - East 15.0 mph - N/A   Clear
3:30 AM 64.4 °F 51.8 °F 64% 30.06 in - East 15.0 mph - N/A   Clear
4:00 AM 62.6 °F 50.0 °F 63% 30.06 in - East 13.8 mph - N/A   Clear
4:30 AM 62.6 °F 48.2 °F 59% 30.06 in - ENE 9.2 mph - N/A   Clear
5:00 AM 59.0 °F 48.2 °F 67% 30.06 in - NE 10.4 mph - N/A   Clear
5:30 AM 57.2 °F 48.2 °F 72% 30.06 in - NNE 8.1 mph - N/A   Clear
6:00 AM 57.2 °F 48.2 °F 72% 30.06 in - NNE 5.8 mph - N/A   Clear
6:30 AM 57.2 °F 50.0 °F 77% 30.06 in - ENE 110.5 mph - N/A   Clear
7:00 AM 62 °F 50 °F 56% 30.07 in 22 mi ENE 13.4 mph - -   Scattered Clouds
7:00 AM 60.8 °F 50.0 °F 68% 30.06 in - ENE 12.7 mph - N/A   Clear
7:30 AM 62.6 °F 51.8 °F 68% 30.06 in - ENE 15.0 mph - N/A   Clear
8:00 AM 64.4 °F 51.8 °F 64% 30.04 in - ENE 10.4 mph - N/A   Clear
8:30 AM 66.2 °F 51.8 °F 60% 30.06 in - North - - N/A   Clear
9:00 AM 66.2 °F 51.8 °F 60% 30.04 in - ENE 16.1 mph - N/A   Clear
9:30 AM 68.0 °F 53.6 °F 60% 30.04 in - East 17.3 mph - N/A   Clear
10:00 AM 69.8 °F 51.8 °F 53% 30.04 in - East 17.3 mph - N/A   Clear
10:30 AM 71.6 °F 51.8 °F 50% 30.04 in - East 19.6 mph - N/A   Clear
11:00 AM 73.4 °F 51.8 °F 47% 30.04 in - East 15.0 mph - N/A   Clear
11:30 AM 71.6 °F 50.0 °F 46% 30.01 in - East 19.6 mph - N/A   Clear
12:00 PM 73.4 °F 50.0 °F 44% 30.01 in - East 19.6 mph - N/A   Clear
12:30 PM 75.2 °F 51.8 °F 44% 30.01 in - East 19.6 mph - N/A   Clear
1:00 PM 75 °F 51 °F 33% 30.03 in 25 mi ESE 20.1 mph - -  
1:00 PM 75.2 °F 51.8 °F 44% 30.01 in - ESE 20.7 mph - N/A   Clear
1:30 PM 75.2 °F 51.8 °F 44% 30.01 in - East 18.4 mph - N/A   Clear
2:00 PM 77.0 °F 51.8 °F 41% 30.01 in 6.2 mi ESE 19.6 mph - N/A   Partly Cloudy
2:30 PM 77.0 °F 46.4 °F 34% 30.01 in 6.2 mi East 24.2 mph - N/A   Partly Cloudy
3:00 PM 77.0 °F 44.6 °F 32% 30.01 in 6.2 mi ESE 24.2 mph - N/A   Partly Cloudy
3:30 PM 77.0 °F 44.6 °F 32% 30.01 in 6.2 mi East 21.9 mph - N/A   Partly Cloudy
4:00 PM 77.0 °F 46.4 °F 34% 30.01 in 6.2 mi East 21.9 mph - N/A   Partly Cloudy
4:30 PM 77.0 °F 48.2 °F 36% 30.01 in 6.2 mi East 23.0 mph 34.5 mph N/A   Partly Cloudy
5:00 PM 77.0 °F 46.4 °F 34% 30.01 in 6.2 mi East 19.6 mph - N/A   Partly Cloudy
5:30 PM 77.0 °F 46.4 °F 34% 30.01 in 6.2 mi East 20.7 mph - N/A   Partly Cloudy
6:00 PM 77.0 °F 46.4 °F 34% 30.01 in 6.2 mi East 20.7 mph - N/A   Partly Cloudy
6:30 PM 77.0 °F 44.6 °F 32% 29.98 in 6.2 mi East 19.6 mph - N/A   Partly Cloudy
7:00 PM 76 °F 44 °F 21% 30.01 in 25 mi East 17.9 mph - -   Scattered Clouds
7:00 PM 75.2 °F 44.6 °F 34% 30.01 in 6.2 mi East 17.3 mph - N/A   Partly Cloudy
7:30 PM 75.2 °F 44.6 °F 34% 30.01 in 6.2 mi East 12.7 mph - N/A   Partly Cloudy
8:00 PM 73.4 °F 50.0 °F 44% 30.01 in 6.2 mi East 9.2 mph - N/A   Partly Cloudy
8:30 PM 71.6 °F 51.8 °F 50% 30.01 in 6.2 mi East 8.1 mph - N/A   Partly Cloudy
9:00 PM 71.6 °F 51.8 °F 50% 30.01 in 6.2 mi East 8.1 mph - N/A   Partly Cloudy
9:30 PM 69.8 °F 51.8 °F 53% 30.04 in 6.2 mi East 5.8 mph - N/A   Partly Cloudy
10:00 PM 66.2 °F 50.0 °F 56% 30.04 in 6.2 mi NE 6.9 mph - N/A   Partly Cloudy
10:30 PM 64.4 °F 51.8 °F 64% 30.04 in 6.2 mi East 6.9 mph - N/A   Partly Cloudy
11:00 PM 66.2 °F 51.8 °F 60% 30.04 in 6.2 mi SE 5.8 mph - N/A   Partly Cloudy
11:30 PM 66.2 °F 50.0 °F 56% 30.04 in 6.2 mi East 5.8 mph - N/A   Partly Cloudy